Location: Newark
(14.4833°N, 101.9000°E)
Time: 06:01:57
(UTC+00:00)

N. Korean satellite - Visible Passes

Search period start: 23 September 2020 00:00
Search period end: 03 October 2020 00:00
Orbit: 455 x 503 km, 97.2° (Epoch: 22 September)

Date Brightness Start Highest point End Pass type
(mag) Time Alt. Az. Time Alt. Az. Time Alt. Az.
23 Sep 8.7 22:04:28 10° NE 22:07:38 30° E 22:10:45 10° SSE visible
24 Sep 10.0 21:40:19 10° ENE 21:41:36 12° E 21:42:53 10° ESE visible
26 Sep 7.3 22:19:26 10° NNE 22:22:54 55° E 22:26:20 10° S visible
27 Sep 9.4 21:54:14 10° NE 21:56:53 20° E 21:59:31 10° SSE visible
29 Sep 6.4 22:34:37 10° N 22:38:08 76° WNW 22:41:35 10° SSW visible
30 Sep 8.3 22:08:54 10° NNE 22:12:08 35° E 22:15:20 10° SSE visible
01 Oct 9.9 21:44:17 10° ENE 21:46:05 14° E 21:47:53 10° SE visible
